www.pogodaiklimat.ru
ПОГОДА в Элкинсе
Время
и дата
12:51 07.12
13:12 07.12
13:42 07.12
13:51 07.12
14:27 07.12
14:51 07.12
15:43 07.12
15:51 07.12
16:05 07.12
16:51 07.12
17:22 07.12
17:51 07.12
18:39 07.12
18:51 07.12
19:42 07.12
19:51 07.12
20:51 07.12
21:16 07.12
21:51 07.12
22:39 07.12
22:51 07.12
23:49 07.12
23:51 07.12
00:51 08.12
01:51 08.12
02:41 08.12
02:51 08.12
03:08 08.12
03:34 08.12
03:46 08.12
03:51 08.12
04:29 08.12
04:51 08.12
05:51 08.12
06:41 08.12
06:51 08.12
07:51 08.12
08:18 08.12
08:51 08.12
09:51 08.12
10:43 08.12
10:51 08.12
10:59 08.12
11:18 08.12
11:51 08.12
12:51 08.12
13:08 08.12
13:51 08.12
Ветер
(напр.,м/с)
Видим. Явления Облачность Т
(С)
Тd
(С)
f
(%)
Тe
(С)
Тes
(С)
Комфортность P
(гПа)
Po
(гПа)
Тmin
(С)
Tmax
(С)
R
(мм)
R24
(мм)
S
(см)
штиль 0 14 км слабый дождь 10/10 750 m
[Ns]
+17.2 +13.9 81 +17 +17 1021.7 950.0 +11.7 +17.2 2.3
нст 3 8 км слабый дождь 10/10 660 m
[Ns]
+16.7 +13.9 84 +16 +16 950.0
ЮЗ 3 14 км 10/10 660 м +16.7 +13.9 84 +16 +16 950.0
ЮЗ 2 16 км 10/10 600 м +16.7 +13.9 84 +17 +17 1021.6 950.0
ЮВ 2 14 км 10/10 600 м +16.1 +14.4 90 +16 +16 949.7
штиль 0 16 км 10/10 600 м +16.7 +14.4 86 +17 +17 1021.6 950.0
З 3 16 км 10/10 690 м +17.2 +13.3 78 +17 +17 950.3
З 3 16 км 10/10 690 м +17.2 +13.3 78 +17 +17 1021.8 950.3
ЮЗ 2 16 км 10/10 690 м +16.7 +13.3 80 +17 +17 950.3
З 3 16 км 5/5 660 м +16.1 +12.2 78 +16 +16 1022.5 951.0
нст 2 16 км 8/8 720 м +16.1 +12.8 81 +16 +16 951.0
штиль 0 16 км 8/8 690 м +15.0 +12.2 83 +15 +15 1022.8 951.0
С 2 11 км 8/8 540 м +13.9 +12.2 89 +13 +13 951.3
штиль 0 14 км 8/8 570 м +13.9 +12.8 93 +13 +13 1023.2 951.3 +13.3 +17.2
СЗ 2 16 км 10/10 420 м +14.4 +11.7 84 +14 +14 952.2
СЗ 3 16 км 10/10 360 м +14.4 +11.7 84 +13 +13 1024.3 952.5
СЗ 4 16 км 10/10 330 м +13.9 +11.1 83 +12 +12 1024.8 953.2
СЗ 2 10 км слабый дождь, дымка 10/10 270 m
[Ns]
+12.8 +11.1 89 +12 +12 953.2
нст 2 8 км дымка 10/10 240 м +12.2 +10.6 90 +11 +11 1025.3 953.5
штиль 0 16 км 10/10 330 м +11.7 +9.4 86 +11 +11 953.8
штиль 0 13 км 10/10 330 м +11.7 +10.0 89 +11 +11 1025.3 953.5
СЗ 3 16 км 10/10 480 м +11.0 +9.0 87 +9 +9 953.8
СЗ 3 16 км 10/10 480 м +11.1 +8.9 86 +9 +9 1025.6 953.8
штиль 0 16 км 10/10 570 м +11.1 +8.9 86 +10 +10 1025.3 953.5 +11.1 +15.6 0.3
штиль 0 14 км 10/10 660 м +10.0 +9.4 96 +9 +9 1025.5 953.5
С 3 11 км 10/10 420 м +10.6 +8.9 89 +8 +8 953.8
С 2 11 км 10/10 420 м +10.6 +8.9 89 +9 +9 1025.8 954.1
С 3 16 км 10/10 270 м +10.0 +8.9 93 +8 +8 953.8
С 3 16 км 10/10 180 м +10.0 +8.3 89 +8 +8 953.8
С 2 14 км 10/10 180 м +10.0 +8.0 87 +8 +8 953.8
С 3 14 км 10/10 180 м +10.0 +8.3 89 +8 +8 1025.3 953.5
штиль 0 16 км 10/10 300 м +9.4 +7.8 90 +9 +9 953.8
штиль 0 16 км 10/10 360 м +9.4 +7.2 86 +9 +9 1025.4 953.5
штиль 0 16 км 10/10 330 м +8.9 +7.2 89 +8 +8 1025.7 953.5
штиль 0 14 км 10/10 330 м +8.9 +7.2 89 +8 +8 954.1
штиль 0 16 км 10/10 330 м +8.9 +7.2 89 +8 +8 1025.9 953.8 +8.9 +11.1 2.5
штиль 0 14 км 10/10 420 м +8.9 +7.2 89 +8 +8 1025.5 953.5
С 2 16 км 10/10 420 м +8.9 +6.7 86 +7 +7 953.8
С 2 16 км 10/10 510 м +9.4 +6.7 83 +8 +8 1026.2 954.1
СЗ 2 16 км 5/5 840 м +9.4 +6.1 80 +8 +8 1026.9 954.7
штиль 0 16 км 8/8 360 м +10.0 +6.1 77 +9 +10 954.1
штиль 0 16 км 10/10 360 м +9.4 +6.1 80 +9 +9 1026.3 954.1
С 2 16 км 10/10 360 м +10.0 +6.1 77 +9 +9 953.8
штиль 0 16 км 5/5 780 м +10.0 +6.1 77 +9 +12 953.5
штиль 0 16 км 8/8 390 м +10.0 +6.1 77 +9 +11 1025.9 953.5
штиль 0 16 км 10/10 750 м +10.6 +6.1 74 +10 +10 1024.8 952.9 +8.3 +10.6
В 2 16 км 5/5 780 м +10.6 +6.1 74 +9 +12 952.5
Ю 2 16 км ясно +10.6 +6.1 74 +9 +14 1023.5 951.6
Местоположение метеостанции Elkins-Randolph County-Jennings Randolph Field: широта 38.8853 долгота -79.8528 высота над уровнем моря 605 м.
В архиве по умолчанию представлена погода в Элкинсе за последние 1-2 суток. Обновление информации о фактической погоде в базе происходит ежечасно! Архивные данные за месяц целиком и за предыдущие месяцы Вы можете получить, выбрав интересующий диапазон дат из раскрывающегося списка и нажав кнопку "Ввод!".
Внимание! Архив погоды МЕТАР в базе сайта по станциям, не включенным в климатический монитор, хранится не более 60 дней. Нет смысла пытаться выбрать более раннюю дату.
*Определитесь, кто Вы:
Внимание! Время в таблицах - местное (без учета летнего времени). Для получения всемирного времени необходимо вычесть поправку, которая равна -5 ч.
Смотрите также архив погоды в соседних городах и на ближайших метеорологических станциях:
Партнеры нашего сайта:      
Пояснения к столбцам:
  • Ветер - указаны скорость ветра в м/с - средняя за 10 мин, порывы в срок и между сроками (в фигурных скобках) и направление, откуда дует ветер: С - северный,
  • СВ - северо-восточный, В - восточный, ЮВ - юго-восточный, Ю - южный, ЮЗ - юго-западный, З - западный, СЗ - северо-западный.
  • Видимость - горизонтальная дальность видимости в метрах или километрах. При видимости от 1 до 10 км при отсутствии осадков обычно наблюдается дымка, при ухудшении видимости до 1 км и менее - туман. В сухую погоду видимость может ухудшаться дымом, пылью или мглою.
  • Явления - указаны атмосферные явления, наблюдавшиеся в срок или в последний час перед сроком; фигурными скобками обозначены явления, наблюдавшиеся между сроками (за 1-3 часа до срока); квадратными скобками обозначены град или гололедные отложения с указанием их диаметра в мм.
  • Облачность - указаны через наклонную черту общая и нижняя облачность в баллах и высота нижней границы облаков в метрах; квадратными скобками обозначены формы облаков: Ci - перистые, Cs - перисто-слоистые, Cc - перисто-кучевые, Ac - высококучевые, As - высокослоистые, Sc - слоисто-кучевые, Ns - слоисто-дождевые, Cu - кучевые, Cb - кучево-дождевые. Подробнее классификацию облаков см. в Атласе облаков (PDF).
  • T - Температура воздуха - температура, измеренная на высоте 2 м над землей.
  • Td - Температура точки росы - температура, при понижении до которой содержащийся в воздухе водяной пар достигнет насыщения.
  • f - Относительная влажность воздуха - влажноcть воздуха, измеренная на высоте 2 м над землей.
  • Te - Эффективная температура - температура, которую ощущает одетый по сезону человек в тени. Характеристика душности погоды. При расчете учитывается влияние влажности воздуха и скорости ветра на теплоощущения человека.
  • Tes - Эффективная температура на солнце - температура, которую ощущает человек, с поправкой на солнечный нагрев. Характеристика знойности погоды. Зависит от высоты солнца над горизонтом, облачности и скорости ветра. Ночью, в пасмурную погоду, а также при ветре 12 м/с и более поправка равна нулю.
  • P - Атмосферное давление - приведенное к уровню моря атмосферное давление.
  • Po - Атмосферное давление - измеренное на уровне метеостанции атмосферное давление.
  • Tmin - Минимальная температура - минимум температуры воздуха на высоте 2 м над землей.
  • Tmax - Максимальная температура - максимум температуры воздуха на высоте 2 м над землей.
  • R - Количество осадков - Количество выпавших осадков за период времени, мм. При наведении курсора мыши на число - период времени, за который выпало указанное количество осадков.
  • R24 - Количество осадков - Количество выпавших осадков за 24 часа, мм.
  • S - Снежный покров - Высота снежного покрова, см. При наведении курсора мыши на число - состояние снежного покрова и степень покрытия местности в баллах.